Flag for Germany Weather past 2 weeks in Biberach an der Riss, Baden-Württemberg, Germany

Now
54 °F

Fog.


Feels Like: 53 °F
Forecast: 52 / 73 °F
Wind: 3 mph from Northeast

Location: Laupheim Airport

Current Time: Sep 17, 2014 at 10:24:26 AM

Latest Report: Sep 17, 2014 at 9:20 AM


Visibility: 0 mi

Pressure: 29.98 "Hg

Humidity: 100%

Dew point: 54 °F

Location of Biberach an der RissLocation

Historic Weather in Biberach an der Riss — Graph

°F

Biberach an der Riss temperature yesterday

Maximum temperature yesterday: 66 °F (at 5:20 PM)
Minimum temperature yesterday: 50 °F (at 4:20 AM)
Average temperature yesterday: 56 °F

Past Weeks' High & Low Weather Summary

 TemperatureHumidityPressure
High77 °F (Sep 8, 2:20 PM)100% (Sep 2, 8:20 PM)30.18 "Hg (Sep 2, 8:20 PM)
Low46 °F (Sep 11, 6:20 AM)50% (Sep 7, 3:20 PM)29.92 "Hg (Sep 6, 3:20 PM)
Average59 °F87%30.04 "Hg
* Reported Sep 2 9:20 AM — Sep 17 9:20 AM, Biberach an der Riss, Weather by CustomWeather, © 2014

Note: Actual official high and low records may vary slightly from our data, if they occured in-between our weather recording intervals... More about our weather records

Advertising

Biberach an der Riss weather history for previous 24 hours

 ConditionsComfort  
Time TempWeatherWind HumidityBarometerVisibility
9:20 AM
Sep 17
54 °FFog.3 mph100%29.98 "Hg0 mi
8:20 AM52 °FFog.2 mph100%29.95 "Hg0 mi
7:20 AM52 °FFog.3 mph100%29.98 "Hg0 mi
6:20 AM54 °FFog.3 mph100%29.95 "Hg0 mi
5:20 AM54 °FFog.2 mph100%29.98 "Hg0 mi
4:20 AM54 °FFog.3 mph100%29.95 "Hg0 mi
3:20 AM54 °FFog.2 mph100%29.98 "Hg0 mi
2:20 AM54 °FFog.5 mph100%29.98 "Hg0 mi
1:20 AM52 °FFog.3 mph100%29.98 "Hg0 mi
12:20 AM52 °FFog.3 mph100%29.98 "Hg0 mi
11:20 PM
Sep 16
55 °FFog.3 mph94%30.01 "Hg2 mi
10:20 PM55 °FFog.5 mph100%30.01 "Hg3 mi
9:20 PM57 °FPassing clouds.6 mph94%30.01 "Hg4 mi
8:20 PM59 °FPassing clouds.5 mph94%30.01 "Hg5 mi
7:20 PM63 °FPassing clouds.5 mph88%29.98 "HgN/A
6:20 PM64 °FPassing clouds.7 mph83%29.98 "HgN/A
5:20 PM66 °FPassing clouds.7 mph78%29.98 "HgN/A
4:20 PM64 °FPassing clouds.7 mph78%30.01 "HgN/A
3:20 PM63 °FPassing clouds.6 mph83%30.01 "Hg5 mi
2:52 PM63 °FScattered clouds.6 mph83%30.01 "Hg4 mi
2:20 PM61 °FFog.5 mph88%30.01 "Hg3 mi
2:01 PM59 °FFog.5 mph94%30.01 "Hg3 mi
1:20 PM57 °FFog.2 mph100%30.04 "Hg2 mi
12:48 PM57 °FFog.2 mph94%30.04 "Hg2 mi
12:20 PM55 °FFog.2 mph100%30.04 "Hg1 mi
11:54 AM55 °FFog.1 mph100%30.04 "Hg1 mi
11:20 AM55 °FFog.2 mph100%30.04 "Hg1 mi
10:20 AM54 °FFog.1 mph100%30.04 "Hg0 mi
Weather by CustomWeather, © 2014

See weather overviewHow to use our weather pages